Regional Weather Roundup
Issued by NWS Boston, MA

Current Version | Previous Version | Text Only | Print | Product List | Glossary Off
Versions: 1 2 3 4 5 6 7 8 9 10 11 12 13 14 15 16 17 18 19 20 21 22 23 24 25 26 27 28 29 30 31 32 33 34 35 36 37 38 39 40 41 42 43 44 45 46 47 48 49 50
160 ASUS41 KBOX 180210 RWRBOX REGIONAL WEATHER ROUNDUP NATIONAL WEATHER SERVICE TAUNTON MA 1000 PM EDT THU AUG 17 2017 NOTE: "FAIR" INDICATES FEW OR NO CLOUDS BELOW 12,000 FEET WITH NO SIGNIFICANT WEATHER AND/OR OBSTRUCTIONS TO VISIBILITY. MAZALL-180300- EASTERN MASSACHUSETTS CITY SKY/WX TMP DP RH WIND PRES REMARKS BOSTON CLOUDY 70 56 61 S9 29.99S BEVERLY CLOUDY 65 58 78 S3 29.99R LAWRENCE CLOUDY 71 54 54 CALM 30.01R BEDFORD CLOUDY 67 53 61 CALM 29.98S BLUE HILL N/A 67 53 61 S8 30.01S NORWOOD CLOUDY 65 56 72 S5 30.00R MARSHFIELD CLOUDY 68 54 60 SW6 30.00S PLYMOUTH PTCLDY 65 56 72 S3 30.02S TAUNTON PTCLDY 62 55 77 CALM 30.00S NEW BEDFORD CLEAR 63 59 87 CALM 30.01S $$ MAZALL-180300- CAPE COD AND THE ISLANDS CITY SKY/WX TMP DP RH WIND PRES REMARKS FALMOUTH PTCLDY 63 61 94 S5 30.03S HYANNIS MOCLDY 68 60 75 SW6 30.01S CHATHAM CLOUDY 68 58 70 SW5 30.03R PROVINCETOWN CLOUDY 68 61 78 SW9 30.01S NANTUCKET PTCLDY 60 58 92 S7 30.04R MARTHAS VNYRD CLEAR 60 57 89 S3 30.02S $$ MAZALL-180300- CENTRAL AND WESTERN MASSACHUSETTS CITY SKY/WX TMP DP RH WIND PRES REMARKS WORCESTER MOCLDY 65 54 67 SW8 30.03S FITCHBURG MOCLDY 67 58 72 NW3 30.01R ORANGE MOCLDY 63 60 90 CALM 30.01R SPRINGFIELD MOCLDY 71 58 64 S8 29.98R WESTFIELD PTCLDY 68 63 84 SE3 29.99R NORTH ADAMS CLOUDY 63 57 81 CALM 30.00S PITTSFIELD MOCLDY 63 59 87 CALM 30.00S $$ RIZALL-180300- RHODE ISLAND CITY SKY/WX TMP DP RH WIND PRES REMARKS PROVIDENCE MOCLDY 66 57 72 S5 30.02R NEWPORT CLEAR 66 63 90 S5 30.02R BLOCK ISLAND CLEAR 69 64 84 S8 30.02S WESTERLY PTCLDY 67 62 84 CALM 30.02S $$ CTZALL-180300- CONNECTICUT CITY SKY/WX TMP DP RH WIND PRES REMARKS BRADLEY INTL CLOUDY 71 58 63 S6 29.99S HARTFORD PTCLDY 71 59 65 S3 29.99S BRIDGEPORT CLEAR 72 64 76 S6 30.00R DANBURY PTCLDY 70 61 73 CALM 30.01S GROTON PTCLDY 68 63 84 CALM 30.00F NEW HAVEN PTCLDY 70 63 78 S5 30.00S CHESTER NOT AVBL MERIDEN CLOUDY 65 60 84 CALM 30.00S WILLIMANTIC PTCLDY 67 60 78 CALM 30.01S OXFORD CLOUDY 67 60 78 S6 30.02S $$ MEZ002-015-021-024-NHZ003-005-008-011-012-014-VTZ005-008-180300- NORTHERN NEW ENGLAND CITY SKY/WX TMP DP RH WIND PRES REMARKS PORTLAND ME MOCLDY 67 53 61 CALM 29.99R BANGOR ME PTCLDY 61 48 62 CALM 29.98R CONCORD NH PTCLDY 62 58 86 CALM 30.00R MANCHESTER NH MOCLDY 69 55 60 SE3 29.98R NASHUA NH PTCLDY 65 58 78 CALM 30.00R PORTSMOUTH NH MOCLDY 67 56 67 SW2 29.98R JAFFREY NH PTCLDY 60 59 96 CALM 30.03S KEENE NH N/A N/A N/A N/A MISG N/A BURLINGTON VT PTCLDY 66 60 81 E3 29.97R MT. WASHINGTON MOCLDY 48 30 49 NW5 N/A $$ NYZ052-076-180300- EASTERN NEW YORK CITY SKY/WX TMP DP RH WIND PRES REMARKS ALBANY CLOUDY 70 59 68 CALM 29.96S NEW YORK CITY CLOUDY 75 71 87 SE6 29.97F $$ ANZALL-180300- MARINE OBSERVATIONS STATION/POSITION TIME TEMP WIND PRES VSBY WAVE AIR SEA DIR/SP/G HT/PER (UTC) (F) (DEG/KT/KT) (MB) (MI) (FT/S) BOSTON BUOY 0050 69 68 210/ 6/ 6 1014.9 1/13 BUZZARDS BAY 0100 68 210/ 7/ 7 1016.9R NANTUCKET SOUND 0050 68 72 220/ 10/ 12 1016.3 1/ 8 MASS BAY-STELLWA 0104 70 67 190/ 10/ 12 1014.5R 1/ 3 ISLE OF SHOALS 0100 71 200/ 11/ 11 1015.2R S OF BLOCK IS NOT AVBL $$ ......................KEY......................... SKY/WX - SKY CONDITION/PRESENT WEATHER TMP - TEMPERATURE IN FAHRENHEIT DWPT - DEWPOINT IN FAHRENHEIT RH - RELATIVE HUMIDITY IN PERCENT WIND - DIRECTION AND SPEED IN MPH PRES - MEAN SEA LEVEL PRESSURE IN INCHES OF HG WCI - WIND CHILL INDEX VSB - VISIBILITY IN MILES HX - HEAT INDEX TC - TEMPERATURE IN CELSIUS VRB - VARIABLE WIND DIRECTION N/A - NOT AVAILABLE

USA.gov is the U.S. government's official web portal to all federal, state and local government web resources and services.